• Em Portugal
  • Lista de países
  • Para 7 dias
  • Temperatura da água
  • Mapas de satélite
  • Mapa do tempo
  • Widgets de tempo
  • user-avatar
    Iniciar Sessão

    Previsão horária em Hrodna

    Hoje, 19 Outubro, Sexta-feira

    Tempo Temperatura Precipitação Vento Pressão Humidade
    00:00 +12°C° 0 mm 1 m/s 753 mmHg 78%
    01:00 +12°C° 0 mm 1 m/s 753 mmHg 79%
    02:00 +12°C° 0 mm 2 m/s 753 mmHg 80%
    03:00 +10°C° 0 mm 2 m/s 753 mmHg 81%
    04:00 +10°C° 0 mm 2 m/s 753 mmHg 83%
    05:00 +9°C° 0 mm 2 m/s 753 mmHg 85%
    06:00 +9°C° 0 mm 2 m/s 753 mmHg 85%
    07:00 +9°C° 0 mm 2 m/s 754 mmHg 85%
    08:00 +9°C° 0 mm 2 m/s 754 mmHg 86%
    09:00 +12°C° 0 mm 2 m/s 754 mmHg 80%
    10:00 +13°C° 0 mm 2 m/s 754 mmHg 74%
    11:00 +15°C° 0 mm 2 m/s 755 mmHg 68%
    12:00 +14°C° 0 mm 3 m/s 755 mmHg 68%
    13:00 +16°C° 0 mm 3 m/s 755 mmHg 67%
    14:00 +16°C° 0 mm 3 m/s 755 mmHg 66%
    15:00 +14°C° 0 mm 3 m/s 755 mmHg 71%
    16:00 +13°C° 0 mm 3 m/s 755 mmHg 76%
    17:00 +12°C° 0 mm 3 m/s 755 mmHg 81%
    18:00 +11°C° 0 mm 3 m/s 755 mmHg 84%
    19:00 +10°C° 0 mm 2 m/s 756 mmHg 86%
    20:00 +9°C° 0 mm 2 m/s 756 mmHg 89%
    21:00 +9°C° 0 mm 2 m/s 756 mmHg 90%
    22:00 +8°C° 0 mm 2 m/s 756 mmHg 91%
    23:00 +8°C° 0 mm 2 m/s 757 mmHg 92%

    Amanhã, 20 Outubro, Sábado

    Tempo Temperatura Precipitação Vento Pressão Humidade
    00:00 +8°C° 0 mm 1 m/s 757 mmHg 92%
    01:00 +8°C° 0 mm 1 m/s 757 mmHg 93%
    02:00 +7°C° 0 mm 1 m/s 757 mmHg 94%
    03:00 +7°C° 0 mm 1 m/s 757 mmHg 94%
    04:00 +6°C° 0 mm 1 m/s 757 mmHg 94%
    05:00 +6°C° 0 mm 1 m/s 757 mmHg 94%
    06:00 +6°C° 0 mm 1 m/s 757 mmHg 94%
    07:00 +6°C° 0 mm 1 m/s 757 mmHg 93%
    08:00 +6°C° 0 mm 1 m/s 757 mmHg 93%
    09:00 +8°C° 0 mm 1 m/s 757 mmHg 85%
    10:00 +9°C° 0 mm 1 m/s 757 mmHg 76%
    11:00 +11°C° 0 mm 1 m/s 757 mmHg 68%
    12:00 +10°C° 0 mm 2 m/s 757 mmHg 65%
    13:00 +12°C° 0 mm 2 m/s 757 mmHg 61%
    14:00 +13°C° 0 mm 2 m/s 757 mmHg 57%
    15:00 +12°C° 0 mm 2 m/s 757 mmHg 61%
    16:00 +10°C° 0 mm 2 m/s 756 mmHg 65%
    17:00 +10°C° 0 mm 1 m/s 756 mmHg 69%
    18:00 +10°C° 0 mm 1 m/s 756 mmHg 72%
    19:00 +9°C° 0 mm 1 m/s 756 mmHg 74%
    20:00 +9°C° 0 mm 1 m/s 756 mmHg 77%
    21:00 +9°C° 0.1 mm 1 m/s 756 mmHg 79%
    22:00 +8°C° 0.1 mm 2 m/s 756 mmHg 82%
    23:00 +7°C° 0.1 mm 2 m/s 756 mmHg 84%

    Depois de amanhã, 21 Outubro, Domingo

    Tempo Temperatura Precipitação Vento Pressão Humidade
    00:00 +7°C° 0.1 mm 2 m/s 756 mmHg 86%
    01:00 +7°C° 0.1 mm 2 m/s 756 mmHg 89%
    02:00 +7°C° 0.1 mm 2 m/s 756 mmHg 91%
    03:00 +6°C° 0 mm 2 m/s 756 mmHg 92%
    04:00 +6°C° 0 mm 2 m/s 756 mmHg 94%
    05:00 +5°C° 0 mm 2 m/s 756 mmHg 95%
    06:00 +6°C° 0 mm 1 m/s 756 mmHg 95%
    07:00 +7°C° 0 mm 1 m/s 756 mmHg 95%
    08:00 +7°C° 0 mm 1 m/s 756 mmHg 95%
    09:00 +8°C° 0 mm 1 m/s 756 mmHg 88%
    10:00 +8°C° 0 mm 2 m/s 756 mmHg 82%
    11:00 +10°C° 0 mm 2 m/s 756 mmHg 76%
    12:00 +10°C° 0.1 mm 2 m/s 756 mmHg 73%
    13:00 +12°C° 0.1 mm 2 m/s 756 mmHg 69%
    14:00 +12°C° 0.1 mm 2 m/s 756 mmHg 66%
    15:00 +10°C° 0 mm 2 m/s 757 mmHg 69%
    16:00 +10°C° 0 mm 2 m/s 757 mmHg 73%
    17:00 +10°C° 0 mm 1 m/s 757 mmHg 76%
    18:00 +9°C° 0 mm 1 m/s 757 mmHg 80%
    19:00 +8°C° 0 mm 1 m/s 757 mmHg 83%
    20:00 +7°C° 0 mm 1 m/s 758 mmHg 86%
    21:00 +7°C° 0 mm 1 m/s 758 mmHg 87%
    22:00 +7°C° 0 mm 1 m/s 758 mmHg 87%
    23:00 +6°C° 0 mm 1 m/s 758 mmHg 88%

    22 Outubro, Segunda-feira

    Tempo Temperatura Precipitação Vento Pressão Humidade
    00:00 +6°C° 0 mm 1 m/s 758 mmHg 88%
    01:00 +6°C° 0 mm 1 m/s 758 mmHg 89%
    02:00 +5°C° 0 mm 1 m/s 758 mmHg 89%
    03:00 +5°C° 0 mm 1 m/s 758 mmHg 90%
    04:00 +5°C° 0 mm 1 m/s 757 mmHg 91%
    05:00 +5°C° 0 mm 1 m/s 757 mmHg 91%
    06:00 +4°C° 0 mm 2 m/s 757 mmHg 91%
    07:00 +4°C° 0 mm 2 m/s 757 mmHg 92%
    08:00 +4°C° 0 mm 2 m/s 757 mmHg 92%
    09:00 +6°C° 0 mm 2 m/s 757 mmHg 85%
    10:00 +8°C° 0 mm 3 m/s 756 mmHg 78%
    11:00 +8°C° 0 mm 4 m/s 756 mmHg 71%
    12:00 +10°C° 0 mm 4 m/s 756 mmHg 67%
    13:00 +11°C° 0 mm 4 m/s 755 mmHg 63%
    14:00 +10°C° 0 mm 5 m/s 754 mmHg 60%
    15:00 +11°C° 0.1 mm 4 m/s 754 mmHg 64%
    16:00 +10°C° 0.1 mm 4 m/s 754 mmHg 69%
    17:00 +9°C° 0.1 mm 3 m/s 753 mmHg 73%
    18:00 +9°C° 0.7 mm 3 m/s 753 mmHg 78%
    19:00 +7°C° 0.7 mm 4 m/s 753 mmHg 83%
    20:00 +7°C° 0.7 mm 4 m/s 753 mmHg 88%
    21:00 +7°C° 0.4 mm 4 m/s 753 mmHg 87%
    22:00 +6°C° 0.4 mm 4 m/s 753 mmHg 85%
    23:00 +7°C° 0.4 mm 3 m/s 753 mmHg 84%

    23 Outubro, Terça-feira

    Tempo Temperatura Precipitação Vento Pressão Humidade
    00:00 +5°C° 0 mm 3 m/s 753 mmHg 84%
    01:00 +5°C° 0 mm 3 m/s 753 mmHg 85%
    02:00 +4°C° 0 mm 3 m/s 753 mmHg 85%
    03:00 +4°C° 0 mm 3 m/s 753 mmHg 87%
    04:00 +3°C° 0 mm 3 m/s 753 mmHg 88%
    05:00 +3°C° 0 mm 3 m/s 753 mmHg 90%
    06:00 +3°C° 0 mm 3 m/s 753 mmHg 90%
    07:00 +3°C° 0 mm 3 m/s 753 mmHg 90%
    08:00 +3°C° 0 mm 3 m/s 753 mmHg 91%
    09:00 +4°C° 0 mm 3 m/s 752 mmHg 84%
    10:00 +6°C° 0 mm 4 m/s 752 mmHg 78%
    11:00 +7°C° 0 mm 4 m/s 752 mmHg 71%
    12:00 +8°C° 0 mm 4 m/s 752 mmHg 68%
    13:00 +8°C° 0 mm 4 m/s 751 mmHg 64%
    14:00 +9°C° 0 mm 5 m/s 751 mmHg 60%
    15:00 +8°C° 0 mm 4 m/s 750 mmHg 63%
    16:00 +7°C° 0 mm 4 m/s 749 mmHg 67%
    17:00 +7°C° 0 mm 3 m/s 749 mmHg 70%
    18:00 +6°C° 0 mm 4 m/s 748 mmHg 73%
    19:00 +5°C° 0 mm 5 m/s 747 mmHg 76%
    20:00 +4°C° 0 mm 6 m/s 746 mmHg 79%
    21:00 +4°C° 0.2 mm 6 m/s 744 mmHg 81%
    22:00 +5°C° 0.2 mm 7 m/s 743 mmHg 82%
    23:00 +5°C° 0.2 mm 8 m/s 742 mmHg 83%

    24 Outubro, Quarta-feira

    Tempo Temperatura Precipitação Vento Pressão Humidade
    00:00 +5°C° 1.1 mm 8 m/s 740 mmHg 84%
    01:00 +5°C° 1.1 mm 8 m/s 738 mmHg 85%
    02:00 +5°C° 1.1 mm 8 m/s 737 mmHg 87%
    03:00 +5°C° 2.2 mm 8 m/s 735 mmHg 88%
    04:00 +5°C° 2.2 mm 7 m/s 734 mmHg 89%
    05:00 +5°C° 2.2 mm 7 m/s 732 mmHg 91%
    06:00 +5°C° 0.9 mm 6 m/s 732 mmHg 91%
    07:00 +7°C° 0.9 mm 5 m/s 731 mmHg 90%
    08:00 +7°C° 0.9 mm 5 m/s 731 mmHg 90%
    09:00 +7°C° 0.2 mm 6 m/s 732 mmHg 87%
    10:00 +7°C° 0.2 mm 6 m/s 732 mmHg 84%
    11:00 +6°C° 0.2 mm 7 m/s 733 mmHg 81%
    12:00 +5°C° 0.3 mm 7 m/s 733 mmHg 76%
    13:00 +5°C° 0.3 mm 8 m/s 734 mmHg 72%
    14:00 +5°C° 0.3 mm 8 m/s 735 mmHg 67%
    15:00 +4°C° 0 mm 8 m/s 736 mmHg 66%
    16:00 +4°C° 0 mm 7 m/s 737 mmHg 64%
    17:00 +3°C° 0 mm 6 m/s 738 mmHg 63%
    18:00 +3°C° 0 mm 6 m/s 738 mmHg 65%
    19:00 +2°C° 0 mm 6 m/s 739 mmHg 67%
    20:00 +2°C° 0 mm 5 m/s 740 mmHg 69%
    21:00 +2°C° 0 mm 5 m/s 740 mmHg 72%
    22:00 +1°C° 0 mm 5 m/s 740 mmHg 76%
    23:00 +1°C° 0 mm 5 m/s 741 mmHg 79%
    Mostrar mais